Weather reports worldwide

Advertisment
Kleine Brogel, Belgium (6479): temperature & dewpoint: 18.06.2017 05:00:00 - 24.06.2017 05:00:00 (CEST)Kleine Brogel, Belgium (6479): wind speed & gusts: 18.06.2017 05:00:00 - 24.06.2017 05:00:00 (CEST)Kleine Brogel, Belgium (6479): wind direction: 18.06.2017 05:00:00 - 24.06.2017 05:00:00 (CEST)Kleine Brogel, Belgium (6479): reduced air pressure: 18.06.2017 05:00:00 - 24.06.2017 05:00:00 (CEST)Kleine Brogel, Belgium (6479): visibility: 18.06.2017 05:00:00 - 24.06.2017 05:00:00 (CEST)Kleine Brogel, Belgium (6479): precipitation: 18.06.2017 05:00:00 - 24.06.2017 05:00:00 (CEST)
Date & Time tt [°C] td [°C] ff [km/h] ff [kn] fx [km/h] fx [kn] dd ppp [hPa] vv [km] rr [mm]
24.06.2017 05:00:00 13,5 10,7 11 6 - - SW 1016,7 20 -
24.06.2017 04:00:00 13,8 10,6 11 6 18 10 SW 1017,2 20 -
24.06.2017 03:00:00 14,2 10,6 11 6 18 10 SW 1017,2 20 -
24.06.2017 02:00:00 15,1 10,7 11 6 - - SW 1017,2 20 -
24.06.2017 01:00:00 16,3 10,6 18 10 29 16 WSW 1017,7 20 -
24.06.2017 00:00:00 17,1 10,7 22 12 40 21 WSW 1017,7 20 -
23.06.2017 23:00:00 18,5 10,6 18 10 - - WSW 1017,7 20 -
23.06.2017 22:00:00 20,2 11,1 18 10 29 16 WSW 1017,1 20 -
23.06.2017 21:00:00 22,0 10,0 18 10 36 19 W 1016,7 20 -
23.06.2017 20:00:00 23,6 10,1 26 14 - - WSW 1016,2 10 -
23.06.2017 19:00:00 24,7 11,1 22 12 40 21 WSW 1015,8 20 -
23.06.2017 18:00:00 25,4 11,5 22 12 40 21 WSW 1016,0 20 -
23.06.2017 17:00:00 25,1 11,0 29 16 - - WSW 1016,1 20 -
23.06.2017 16:00:00 25,2 12,3 22 12 43 23 W 1016,2 20 -
23.06.2017 15:00:00 25,9 12,2 24 13 43 23 WSW 1016,2 10 -
23.06.2017 14:00:00 24,6 13,0 22 12 - - SW 1016,3 20 -
23.06.2017 13:00:00 22,5 13,5 22 12 32 18 WSW 1016,7 20 -
23.06.2017 12:00:00 23,7 14,1 18 10 32 18 WSW 1016,3 20 -
23.06.2017 11:00:00 21,0 14,6 18 10 - - WSW 1016,2 20 -
23.06.2017 10:00:00 21,5 14,7 14 8 22 12 WSW 1015,7 20 -
23.06.2017 09:00:00 19,8 14,7 14 8 22 12 WSW 1015,6 20 -
23.06.2017 08:00:00 18,7 14,4 14 8 - - WSW 1015,2 20 -
23.06.2017 07:00:00 17,9 14,1 14 8 18 10 WSW 1014,8 20 -
23.06.2017 06:00:00 17,7 13,8 13 7 18 10 WSW 1014,3 10 -
23.06.2017 05:00:00 18,0 13,8 14 8 - - WSW 1014,2 20 -
23.06.2017 04:00:00 18,2 13,7 14 8 22 12 WSW 1014,2 20 -
23.06.2017 03:00:00 19,0 14,2 11 6 14 8 WSW 1014,5 20 -
23.06.2017 02:00:00 19,0 14,3 7 4 - - W 1014,2 20 -
23.06.2017 01:00:00 18,7 14,0 11 6 36 19 W 1014,1 20 -
23.06.2017 00:00:00 19,5 14,0 14 8 29 16 W 1013,6 20 -
22.06.2017 23:00:00 20,2 13,5 11 6 - - W 1013,1 20 -
22.06.2017 22:00:00 21,7 14,1 22 12 36 19 W 1012,2 20 -
22.06.2017 21:00:00 22,8 14,8 22 12 47 25 WNW 1011,3 20 -
22.06.2017 20:00:00 25,3 14,6 25 14 - - W 1010,3 20 -
22.06.2017 19:00:00 27,4 17,2 22 12 40 21 W 1009,5 20 -
22.06.2017 18:00:00 31,6 15,6 18 10 47 25 W 1008,5 20 -
22.06.2017 17:00:00 33,5 16,7 25 14 - - W 1008,2 20 -
22.06.2017 16:00:00 34,9 16,0 25 14 47 25 W 1008,3 20 -
22.06.2017 15:00:00 35,1 15,2 25 14 43 23 WSW 1009,0 20 -
22.06.2017 14:00:00 34,1 15,8 18 10 - - WSW 1010,0 20 -
22.06.2017 13:00:00 33,1 15,5 22 12 36 19 W 1010,6 20 -
22.06.2017 12:00:00 33,1 16,0 18 10 32 18 W 1010,7 20 -
22.06.2017 11:00:00 31,6 15,6 14 8 - - WSW 1011,0 20 -
22.06.2017 10:00:00 29,2 16,8 22 12 32 18 WSW 1011,2 20 -
22.06.2017 09:00:00 27,5 15,8 18 10 29 16 SW 1011,3 20 -
22.06.2017 08:00:00 26,1 15,6 7 4 - - SSW 1011,3 20 -
22.06.2017 07:00:00 22,8 15,2 4 2 7 4 - 1011,7 20 -
22.06.2017 06:00:00 21,5 14,7 4 2 11 6 - 1012,0 20 -
22.06.2017 05:00:00 20,3 14,4 4 2 - - - 1012,2 20 -
22.06.2017 04:00:00 19,4 14,4 4 2 7 4 - 1012,7 20 -
22.06.2017 03:00:00 19,7 14,5 0 0 7 4 N 1013,3 20 -
22.06.2017 02:00:00 20,2 14,9 2 1 - - - 1013,7 10 3,1
22.06.2017 01:00:00 19,4 14,9 4 2 4 2 - 1014,3 20 -
22.06.2017 00:00:00 20,7 14,6 4 2 0 0 - 1014,7 20 -
21.06.2017 23:00:00 22,7 14,7 4 2 - - - 1014,7 20 -
21.06.2017 22:00:00 24,7 14,4 4 2 11 6 - 1014,3 20 -
21.06.2017 21:00:00 28,1 13,9 7 4 14 8 ENE 1014,1 20 -
21.06.2017 20:00:00 29,5 13,0 7 4 - - ENE 1014,2 20 -
21.06.2017 19:00:00 30,8 12,0 8 4 14 8 E 1014,0 10 -
21.06.2017 18:00:00 31,0 11,7 7 4 18 10 E 1014,5 20 -
21.06.2017 17:00:00 31,0 11,4 4 2 - - - 1014,8 20 -
21.06.2017 16:00:00 30,6 12,4 11 6 18 10 E 1015,6 20 -
21.06.2017 15:00:00 29,9 12,4 11 6 22 12 NE 1016,1 20 -
21.06.2017 14:00:00 30,3 13,1 11 6 - - ENE 1016,7 20 -
21.06.2017 13:00:00 28,0 14,3 11 6 18 10 ENE 1017,3 20 -
21.06.2017 12:00:00 27,1 15,0 11 6 18 10 ENE 1017,6 20 -
21.06.2017 11:00:00 24,4 14,2 7 4 - - ENE 1017,7 20 -
21.06.2017 10:00:00 22,2 13,4 7 4 14 8 NE 1018,0 20 -
21.06.2017 09:00:00 19,7 12,2 11 6 18 10 ENE 1018,2 20 -
21.06.2017 08:00:00 18,3 12,0 11 6 - - NE 1018,2 10 -
21.06.2017 07:00:00 16,1 11,7 7 4 14 8 NE 1018,3 20 -
21.06.2017 06:00:00 15,8 11,6 11 6 22 12 ENE 1018,2 20 -
21.06.2017 05:00:00 16,5 12,4 14 8 - - NE 1018,1 20 -
21.06.2017 04:00:00 17,0 13,6 11 6 18 10 NE 1018,3 10 -
21.06.2017 03:00:00 18,1 14,2 11 6 18 10 ENE 1018,3 20 -
21.06.2017 02:00:00 19,0 14,5 11 6 - - NE 1018,3 20 3,1
21.06.2017 01:00:00 20,1 14,8 11 6 22 12 ENE 1018,2 20 -
21.06.2017 00:00:00 21,2 15,5 11 6 18 10 NE 1018,5 20 -
20.06.2017 23:00:00 22,3 16,3 11 6 - - NE 1018,2 20 -
20.06.2017 22:00:00 23,8 16,8 11 6 29 16 NE 1017,7 20 -
20.06.2017 21:00:00 26,1 15,8 22 12 32 18 NE 1017,2 20 -
20.06.2017 20:00:00 27,6 14,7 18 10 - - NNE 1016,8 20 -
20.06.2017 19:00:00 29,9 14,3 18 10 29 16 NE 1016,3 20 -
20.06.2017 18:00:00 30,0 13,6 11 6 22 12 NE 1016,2 20 -
20.06.2017 17:00:00 31,2 12,8 7 4 - - N 1016,6 20 -
20.06.2017 16:00:00 31,2 13,5 11 6 22 12 N 1016,7 20 -
20.06.2017 15:00:00 30,8 14,7 11 6 25 14 NE 1016,7 20 -
20.06.2017 14:00:00 30,7 13,3 11 6 - - NNE 1017,1 18 -
20.06.2017 13:00:00 29,4 16,0 11 6 22 12 NNE 1017,3 18 -
20.06.2017 12:00:00 27,3 17,2 11 6 22 12 NNE 1017,3 18 -
20.06.2017 11:00:00 27,7 17,3 14 8 - - NNE 1017,3 15 -
20.06.2017 10:00:00 27,5 16,5 7 4 14 8 ENE 1017,1 15 -
20.06.2017 09:00:00 24,3 17,1 7 4 11 6 NE 1017,1 15 -
20.06.2017 08:00:00 21,7 17,0 7 4 - - NE 1016,8 15 -
20.06.2017 07:00:00 17,8 16,6 4 2 7 4 - 1016,7 12 -
20.06.2017 06:00:00 16,0 15,5 0 0 4 2 N 1016,7 12 -
20.06.2017 05:00:00 16,5 15,7 4 2 - - - 1016,6 11 -
20.06.2017 04:00:00 17,0 14,5 4 2 7 4 - 1016,7 17 -
20.06.2017 03:00:00 17,5 13,9 4 2 4 2 - 1016,8 20 -
20.06.2017 02:00:00 18,8 13,4 4 2 - - - 1016,8 20 3,2
20.06.2017 01:00:00 18,8 13,4 4 2 11 6 - 1017,1 20 -
20.06.2017 00:00:00 20,3 12,8 4 2 0 0 - 1017,0 20 -
19.06.2017 23:00:00 22,1 12,2 0 0 - - N 1017,0 20 -
19.06.2017 22:00:00 24,7 12,4 0 0 7 4 N 1016,7 20 -
19.06.2017 21:00:00 27,9 11,5 4 2 7 4 - 1016,5 20 -
19.06.2017 20:00:00 29,1 10,3 4 2 - - - 1016,5 20 -
19.06.2017 19:00:00 31,5 10,2 4 2 14 8 - 1016,6 20 -
19.06.2017 18:00:00 32,0 9,8 4 2 18 10 - 1016,8 20 -
19.06.2017 17:00:00 31,5 10,1 8 4 - - ENE 1017,2 10 -
19.06.2017 16:00:00 31,0 9,9 7 4 22 12 E 1017,7 20 -
19.06.2017 15:00:00 30,5 10,3 7 4 18 10 SE 1018,3 20 -
19.06.2017 14:00:00 29,9 10,6 7 4 - - SE 1019,1 20 -
19.06.2017 13:00:00 29,2 10,7 4 2 22 12 - 1019,6 20 -
19.06.2017 12:00:00 27,6 10,7 7 4 14 8 E 1020,1 20 -
19.06.2017 11:00:00 26,8 11,0 7 4 - - - 1020,5 20 -
19.06.2017 10:00:00 25,3 11,6 7 4 14 8 ENE 1021,0 20 -
19.06.2017 09:00:00 23,6 14,0 4 2 11 6 - 1021,3 20 -
19.06.2017 08:00:00 21,7 14,2 4 2 - - - 1021,3 20 -
19.06.2017 07:00:00 17,4 14,6 4 2 4 2 - 1021,6 20 -
19.06.2017 06:00:00 16,7 14,5 2 1 7 4 - 1021,5 10 -
19.06.2017 05:00:00 14,5 13,8 4 2 - - - 1021,6 19 -
19.06.2017 04:00:00 15,1 14,2 0 0 4 2 N 1021,8 7 -
19.06.2017 03:00:00 15,6 14,3 2 1 4 2 - 1022,1 10 -
19.06.2017 02:00:00 16,7 14,7 4 2 - - - 1022,3 18 2,8
19.06.2017 01:00:00 17,2 14,3 4 2 0 0 - 1022,3 20 -
19.06.2017 00:00:00 18,2 14,8 4 2 0 0 - 1022,5 20 -
18.06.2017 23:00:00 20,0 14,9 4 2 - - - 1022,5 20 -
18.06.2017 22:00:00 22,2 14,8 4 2 11 6 - 1022,1 20 -
18.06.2017 21:00:00 24,8 14,1 4 2 14 8 - 1022,1 20 -
18.06.2017 20:00:00 25,8 13,8 7 4 - - E 1022,2 20 -
18.06.2017 19:00:00 27,2 13,9 11 6 22 12 E 1022,7 20 -
18.06.2017 18:00:00 28,2 13,9 11 6 22 12 ENE 1022,7 20 -
18.06.2017 17:00:00 26,9 13,7 11 6 - - E 1023,2 20 -
18.06.2017 16:00:00 27,2 13,9 11 6 18 10 E 1023,7 20 -
18.06.2017 15:00:00 26,4 14,0 7 4 18 10 ENE 1024,2 20 -
18.06.2017 14:00:00 25,2 13,6 9 5 - - E 1024,7 1,5 -
18.06.2017 13:00:00 24,2 14,0 7 4 14 8 ENE 1025,2 5 -
18.06.2017 12:00:00 24,6 15,0 5 3 14 8 NE 1025,4 0,5 -
18.06.2017 11:00:00 22,1 14,9 7 4 - - NE 1025,7 0,2 -
18.06.2017 10:00:00 22,0 15,2 7 4 14 8 E 1026,0 3,0 -
18.06.2017 09:00:00 21,1 15,8 7 4 11 6 E 1026,2 12 -
18.06.2017 08:00:00 18,0 15,4 4 2 - - - 1026,0 10 -
18.06.2017 07:00:00 13,9 13,3 0 0 0 0 N 1026,0 4,6 -
18.06.2017 06:00:00 11,8 11,5 2 1 0 0 - 1026,0 4,7 -
18.06.2017 05:00:00 12,3 12,0 0 0 - - N 1026,0 - -

tt = temperature
td = dewpoint
ff = wind speed
fx = gusts
dd = wind direction
ppp = reduced air pressure
vv = visibility
rr = precipitation

Next stations